Location: Proctor
(47.8934°N, 114.3048°W)
Time: 08:27:02
(UTC+00:00)

Vanguard 2 Rocket - Pass Details

Date: 15 June 2024
Orbit: 555 x 3303 km, 32.9° (Epoch: 13 July)

Event Time Altitude Azimuth Distance (km) Brightness Sun altitude
Exits shadow 09:36:53 - 182° (S) 6,352 10.6 -13.9°
Reaches altitude 10° 09:37:43 10° 181° (S) 6,248 10.6 -13.9°
Maximum altitude 09:49:29 19° 144° (SE) 5,226 10.5 -12.9°
Drops below altitude 10° 09:59:45 10° 106° (ESE) 5,430 11.1 -12.0°
Sets 10:05:07 0° 91° (E) 6,011 11.6 -11.5°
